[[{"header":{"parameterUnit":"m.s-1","parameterCategory":1,"la1":30.2991,"la2":30.254,"lo1":-89.0895,"lo2":-89.0444,"dy":0.0017,"dx":0.0017,"nx":28,"ny":28,"refTime":"2024-07-18T21:00:00:Z","depth":0,"parameterNumber":2,"parameterNumberName":"U-component_of_WINDS"},"data":[0,0,0,0,0,0,0,0,0,0,0,0,0,0,0,0,0,0,0,0,0,0,0,0,0,0,0,0,0,0,0,0,0,0,0,0,0,0,0,0,0,0,0,0,0,0,0,0,0,0,0,0,0,0,0,0,0,0,2.0649,2.0651,0,2.0817,2.0819,2.0821,2.0837,2.0835,2.0834,2.0832,2.1004,2.101,2.1016,0,0,0,0,0,0,0,0,0,0,0,0,0,2.0345,2.035,2.0649,2.0651,2.0654,2.0816,2.0819,2.0821,2.0837,2.0835,2.0833,2.0831,2.1002,2.101,2.1017,0,0,0,0,0,0,0,0,0,0,0,0,0,2.0491,2.0352,2.0649,2.0681,2.0686,2.0816,2.0819,2.0822,2.0838,2.0835,2.0833,2.083,2.1,2.1009,2.1018,2.1128,0,0,2.1046,2.1051,0,0,0,0,0,0,0,0,2.0483,2.0502,2.0674,2.0679,2.0685,2.0803,2.0775,2.0924,2.0838,2.078,2.0832,2.0829,2.094,2.0954,2.0991,2.1136,2.1143,2.1047,2.1053,2.1057,2.106,0,0,0,0,0,0,0,2.0473,2.0495,2.0716,2.0677,2.0683,2.0688,2.0706,2.0803,2.0873,2.0785,2.0787,2.0806,2.0942,2.0982,2.0995,2.1146,2.1047,2.1055,2.1061,2.1065,2.1389,2.1392,0,0,0,0,0,0,2.0456,2.0487,2.071,2.0721,2.0575,2.0695,2.0715,2.0768,2.0871,2.0885,2.0808,2.0806,2.0967,2.0984,2.1001,2.1136,2.1057,2.1066,2.1071,2.1386,2.139,2.1393,0,0,0,0,0,0,2.045,2.0476,2.0704,2.0604,2.0633,2.0703,2.0762,2.0773,2.0813,2.0889,2.0902,2.0836,2.0966,2.0988,2.1096,2.1142,2.107,2.1078,2.1383,2.1387,2.1392,2.1407,0,0,0,0,0,0,2.0441,2.0474,2.0516,2.0605,2.0639,2.0795,2.0765,2.0778,2.0828,2.0828,2.0919,2.0931,2.0965,2.1082,2.1105,2.1154,2.1086,2.1379,2.1385,2.139,2.1403,2.1412,2.142,0,0,0,0,0,2.043,2.0514,2.0518,2.0545,2.0693,2.0798,2.0817,2.0855,2.0832,2.0875,2.0924,2.0928,2.1134,2.1093,2.1119,2.1171,2.1376,2.1383,2.139,2.1399,2.141,2.1419,0,0,0,0,0,0,2.0428,2.0526,2.0532,2.0647,2.0714,2.0801,2.0856,2.0865,2.094,2.0937,2.098,2.1001,2.1107,2.115,2.1103,2.1283,2.1253,2.1265,2.1251,2.1262,2.127,2.1257,2.1093,0,0,0,0,0,2.0441,2.0518,2.06,2.0693,2.0727,2.0786,2.0833,2.0856,2.0928,2.0956,2.1013,2.1083,2.1163,2.1215,2.1293,2.141,2.143,2.1459,2.1467,2.1473,2.1483,2.1548,2.1562,2.1416,2.1416,2.1416,0,0,2.0469,2.0532,2.0578,2.0695,2.075,2.0829,2.0809,2.0894,2.0953,2.0969,2.1074,2.1119,2.1199,2.1312,2.1365,2.1351,2.1528,2.1482,2.1486,2.1493,2.1556,2.157,2.1582,2.142,2.142,2.1419,0,0,2.056,2.0615,2.0699,2.0755,2.0838,2.0876,2.0896,2.0982,2.1012,2.1119,2.1132,2.1204,2.1341,2.1398,2.1444,2.1557,2.1563,2.1581,2.1624,2.1687,2.1698,2.1709,2.1748,2.1762,2.1591,2.1591,2.1591,0,2.0584,2.0703,2.0741,2.0826,2.0877,2.0895,2.098,2.1032,2.1137,2.1172,2.1155,2.1328,2.1384,2.151,2.1537,2.1575,2.1599,2.1571,2.1693,2.1704,2.1715,2.1753,2.1768,2.1593,2.1593,2.1593,2.1592,0,2.0728,2.0811,2.0869,2.0969,2.1027,2.1111,2.1162,2.1216,2.1235,2.1275,2.1383,2.145,2.1542,2.1574,2.1593,2.1703,2.1692,2.1684,2.1654,2.1729,2.1766,2.1781,2.1595,2.1595,2.1594,2.1594,0,0,2.0823,2.0943,2.0963,2.1009,2.1102,2.1167,2.1252,2.1342,2.1387,2.1459,2.1531,2.1647,2.1641,2.1694,2.1719,2.1774,2.1859,2.176,2.1762,2.1775,2.1984,2.1989,2.2005,2.1864,2.1867,2.1869,2.1977,0,2.0924,2.1075,2.1113,2.1243,2.1319,2.1338,2.1412,2.1478,2.1518,2.1589,2.1634,2.1715,2.17,2.1732,2.1787,2.1837,2.1901,2.1829,2.1932,2.1935,2.191,2.2025,2.203,2.2129,2.1992,2.1994,2.1996,0,2.1062,2.1136,2.1273,2.1356,2.139,2.1456,2.1541,2.1609,2.1684,2.1709,2.1769,2.1789,2.1879,2.1844,2.1969,2.1919,2.1963,2.1994,2.1999,2.2009,2.1969,2.2038,2.2161,2.2176,2.2019,2.2017,2.2016,0,2.1116,2.125,2.135,2.1388,2.1488,2.1534,2.1578,2.165,2.1701,2.1776,2.181,2.1894,2.194,2.2005,2.2047,2.2019,2.2168,2.2138,2.2192,2.2191,2.2222,2.2219,2.2354,2.2251,2.2251,2.2251,2.2251,0,2.1224,2.1308,2.1376,2.1437,2.1531,2.1573,2.1665,2.1709,2.1773,2.1843,2.1865,2.193,2.1983,2.2055,2.2089,2.2187,2.2208,2.2231,2.2239,2.2229,2.2226,2.2258,2.2252,2.2255,2.2254,2.2253,2.2253,0,2.1301,2.135,2.1459,2.1544,2.1568,2.1633,2.1706,2.1767,2.1807,2.1896,2.1919,2.1984,2.207,2.2119,2.2229,2.2251,2.236,2.2365,2.2335,2.2338,2.2389,2.2383,2.2548,2.2572,2.2454,2.2455,2.2456,0,2.1367,2.1431,2.1523,2.1571,2.1616,2.1694,2.1746,2.179,2.1844,2.1934,2.1984,2.2072,2.2144,2.2282,2.2339,2.2423,2.2429,2.2481,2.2442,2.243,2.2429,2.2425,2.2431,2.2488,2.2489,2.249,2.249,0,2.1478,2.1499,2.1574,2.1657,2.1719,2.1787,2.1854,2.1893,2.1948,2.2008,2.2097,2.2153,2.2265,2.2352,2.244,2.2485,2.2497,2.2502,2.2519,2.2509,2.2489,2.25,2.2352,2.2498,2.2498,2.2497,2.2497,2.2496,2.1551,2.1609,2.1683,2.1765,2.1821,2.1883,2.1944,2.1992,2.2067,2.216,2.2182,2.2276,2.2349,2.2469,2.2516,2.259,2.2581,2.2605,2.2611,2.2617,2.2618,2.2477,2.2607,2.2606,2.2606,2.2606,2.2606,0,2.1663,2.1712,2.1787,2.188,2.1945,2.1951,2.2026,2.208,2.2161,2.2229,2.23,2.2402,2.2486,2.2549,2.2636,2.2683,2.2691,2.2704,2.2701,2.2711,2.2622,2.2598,2.2696,2.2696,2.2696,2.2696,2.2696,2.2696,2.1729,2.1828,2.1857,2.1983,2.2031,2.2123,2.2165,2.2223,2.2276,2.2389,2.2459,2.25,2.2565,2.2657,2.2735,2.2751,2.2782,2.2795,2.2812,2.2727,2.2717,2.2708,2.2686,2.2801,2.2801,2.2895,2.2895,2.2896]},{"header":{"parameterUnit":"m.s-1","parameterCategory":1,"la1":30.2991,"la2":30.254,"lo1":-89.0895,"lo2":-89.0444,"dy":0.0017,"dx":0.0017,"nx":28,"ny":28,"refTime":"2024-07-18T21:00:00:Z","depth":0,"parameterNumber":3,"parameterNumberName":"V-component_of_WINDS"},"data":[0,0,0,0,0,0,0,0,0,0,0,0,0,0,0,0,0,0,0,0,0,0,0,0,0,0,0,0,0,0,0,0,0,0,0,0,0,0,0,0,0,0,0,0,0,0,0,0,0,0,0,0,0,0,0,0,0,0,-1.8769,-1.8768,0,-1.8674,-1.8673,-1.8672,-1.8656,-1.8657,-1.8658,-1.8659,-1.8556,-1.8552,-1.8549,0,0,0,0,0,0,0,0,0,0,0,0,0,-1.8933,-1.893,-1.877,-1.8768,-1.8767,-1.8674,-1.8673,-1.8671,-1.8656,-1.8657,-1.8658,-1.8659,-1.8557,-1.8553,-1.8548,0,0,0,0,0,0,0,0,0,0,0,0,0,-1.8852,-1.8929,-1.877,-1.8748,-1.8746,-1.8674,-1.8673,-1.8671,-1.8656,-1.8657,-1.8659,-1.866,-1.8558,-1.8553,-1.8548,-1.8489,0,0,-1.8532,-1.8529,0,0,0,0,0,0,0,0,-1.8856,-1.8846,-1.8753,-1.875,-1.8747,-1.8678,-1.8692,-1.861,-1.8656,-1.869,-1.8659,-1.866,-1.8595,-1.8587,-1.8566,-1.8484,-1.848,-1.8531,-1.8528,-1.8526,-1.8524,0,0,0,0,0,0,0,-1.8862,-1.885,-1.8731,-1.8751,-1.8748,-1.8742,-1.8732,-1.8677,-1.8636,-1.8687,-1.8686,-1.8675,-1.8594,-1.8571,-1.8563,-1.8478,-1.8531,-1.8526,-1.8523,-1.8521,-1.834,-1.8338,0,0,0,0,0,0,-1.8872,-1.8855,-1.8735,-1.8729,-1.8806,-1.8738,-1.8726,-1.8699,-1.8637,-1.8629,-1.8674,-1.8674,-1.858,-1.857,-1.856,-1.8484,-1.8526,-1.8521,-1.8518,-1.8342,-1.834,-1.8338,0,0,0,0,0,0,-1.8876,-1.8862,-1.8738,-1.8791,-1.8775,-1.8734,-1.8703,-1.8696,-1.8674,-1.8627,-1.8619,-1.8659,-1.858,-1.8567,-1.8506,-1.848,-1.8518,-1.8513,-1.8344,-1.8341,-1.8339,-1.8334,0,0,0,0,0,0,-1.8881,-1.8863,-1.8842,-1.8791,-1.8772,-1.8689,-1.8701,-1.8694,-1.8665,-1.8665,-1.8611,-1.8603,-1.858,-1.8514,-1.8501,-1.8474,-1.8509,-1.8346,-1.8342,-1.834,-1.8336,-1.8332,-1.8328,0,0,0,0,0,-1.8887,-1.8844,-1.8841,-1.8827,-1.8745,-1.8687,-1.8676,-1.8653,-1.8663,-1.864,-1.861,-1.8604,-1.8486,-1.8508,-1.8493,-1.8464,-1.8347,-1.8343,-1.834,-1.8338,-1.8333,-1.8328,0,0,0,0,0,0,-1.8892,-1.8837,-1.8833,-1.8774,-1.8735,-1.8685,-1.8655,-1.8648,-1.8605,-1.8606,-1.8577,-1.8565,-1.8505,-1.8479,-1.8504,-1.8402,-1.8417,-1.841,-1.8421,-1.8415,-1.8411,-1.8417,-1.8505,0,0,0,0,0,-1.8887,-1.8846,-1.88,-1.8751,-1.8733,-1.8697,-1.8671,-1.8656,-1.8615,-1.8598,-1.8563,-1.8521,-1.8474,-1.8444,-1.8398,-1.8333,-1.8319,-1.8305,-1.8301,-1.8298,-1.8291,-1.8251,-1.8243,-1.8326,-1.8326,-1.8326,0,0,-1.8875,-1.884,-1.8816,-1.8752,-1.872,-1.8676,-1.8684,-1.8637,-1.8603,-1.859,-1.853,-1.8503,-1.8454,-1.839,-1.836,-1.8367,-1.8266,-1.8293,-1.8291,-1.8286,-1.8247,-1.8239,-1.8232,-1.8323,-1.8324,-1.8324,0,0,-1.8829,-1.8801,-1.8755,-1.8724,-1.8676,-1.8653,-1.8642,-1.8592,-1.8574,-1.8514,-1.8502,-1.846,-1.8381,-1.8346,-1.8318,-1.8257,-1.8249,-1.8243,-1.822,-1.8181,-1.8175,-1.8169,-1.8143,-1.8135,-1.8237,-1.8237,-1.8237,0,-1.882,-1.8754,-1.8733,-1.8686,-1.8657,-1.8644,-1.8597,-1.8566,-1.8506,-1.8485,-1.8493,-1.8392,-1.8358,-1.8284,-1.8269,-1.8248,-1.8232,-1.8248,-1.8178,-1.8172,-1.8165,-1.8141,-1.8132,-1.8237,-1.8237,-1.8237,-1.8237,0,-1.8743,-1.8698,-1.8667,-1.8609,-1.8577,-1.853,-1.8499,-1.8468,-1.8456,-1.843,-1.8367,-1.8327,-1.8271,-1.8253,-1.8241,-1.8176,-1.8181,-1.8184,-1.8198,-1.8157,-1.8133,-1.8124,-1.8236,-1.8236,-1.8236,-1.8236,0,0,-1.8698,-1.8628,-1.8617,-1.8589,-1.8536,-1.8499,-1.845,-1.8397,-1.837,-1.8328,-1.8284,-1.8217,-1.8219,-1.8187,-1.817,-1.8136,-1.8086,-1.8143,-1.8141,-1.8131,-1.8008,-1.8003,-1.7993,-1.8082,-1.808,-1.8079,-1.8011,0,-1.8643,-1.8558,-1.8536,-1.8462,-1.8417,-1.8404,-1.8361,-1.8322,-1.8297,-1.8254,-1.8226,-1.8177,-1.8186,-1.8165,-1.8132,-1.81,-1.8061,-1.8105,-1.8037,-1.8035,-1.8046,-1.7981,-1.7977,-1.7915,-1.8002,-1.8,-1.7999,0,-1.8569,-1.8526,-1.8447,-1.8397,-1.8377,-1.8339,-1.8287,-1.8248,-1.8202,-1.8185,-1.8149,-1.8135,-1.8081,-1.81,-1.8022,-1.8053,-1.8024,-1.8004,-1.8001,-1.7991,-1.8012,-1.7966,-1.7895,-1.7884,-1.7985,-1.7986,-1.7987,0,-1.8539,-1.8462,-1.8404,-1.8381,-1.8322,-1.8295,-1.8268,-1.8224,-1.8193,-1.8147,-1.8125,-1.8074,-1.8044,-1.8003,-1.7974,-1.7992,-1.7898,-1.7916,-1.788,-1.788,-1.7858,-1.7859,-1.7778,-1.7846,-1.7846,-1.7846,-1.7846,0,-1.8479,-1.843,-1.839,-1.8354,-1.8298,-1.8273,-1.8217,-1.819,-1.8151,-1.8107,-1.8093,-1.8052,-1.8018,-1.7972,-1.7949,-1.7886,-1.7874,-1.7857,-1.7851,-1.7856,-1.7858,-1.7834,-1.7836,-1.7843,-1.7844,-1.7845,-1.7845,0,-1.8435,-1.8407,-1.8342,-1.8291,-1.8277,-1.8237,-1.8192,-1.8155,-1.813,-1.8075,-1.806,-1.802,-1.7964,-1.7932,-1.7862,-1.7847,-1.7775,-1.7773,-1.7791,-1.7787,-1.7752,-1.7754,-1.765,-1.7633,-1.7716,-1.7715,-1.7714,0,-1.8397,-1.8359,-1.8304,-1.8274,-1.8248,-1.8201,-1.8168,-1.8141,-1.8107,-1.8051,-1.802,-1.7964,-1.7917,-1.7829,-1.7791,-1.7737,-1.773,-1.7698,-1.7722,-1.7727,-1.7725,-1.7726,-1.772,-1.7692,-1.7692,-1.7691,-1.7691,0,-1.8331,-1.8318,-1.8273,-1.8222,-1.8184,-1.8142,-1.8101,-1.8077,-1.8042,-1.8005,-1.7948,-1.7912,-1.784,-1.7783,-1.7725,-1.7695,-1.7685,-1.7684,-1.7672,-1.7675,-1.7685,-1.7675,-1.7775,-1.7685,-1.7686,-1.7686,-1.7686,-1.7687,-1.8286,-1.8251,-1.8206,-1.8155,-1.8121,-1.8082,-1.8043,-1.8013,-1.7966,-1.7906,-1.7893,-1.7832,-1.7784,-1.7706,-1.7674,-1.7625,-1.763,-1.7614,-1.7609,-1.7604,-1.7601,-1.7696,-1.7614,-1.7615,-1.7615,-1.7615,-1.7615,0,-1.8216,-1.8186,-1.814,-1.8082,-1.8041,-1.8038,-1.7991,-1.7956,-1.7904,-1.7861,-1.7815,-1.7748,-1.7692,-1.7651,-1.7593,-1.7561,-1.7554,-1.7546,-1.7546,-1.7538,-1.7602,-1.7616,-1.7552,-1.7552,-1.7552,-1.7552,-1.7552,-1.7552,-1.8175,-1.8113,-1.8095,-1.8015,-1.7985,-1.7927,-1.7899,-1.7862,-1.7827,-1.7754,-1.7707,-1.7681,-1.7637,-1.7576,-1.7523,-1.7512,-1.749,-1.7481,-1.7469,-1.7528,-1.7534,-1.7541,-1.7554,-1.7478,-1.7477,-1.7409,-1.7408,-1.7408]}]]